This is the latest recevied weather packets stored in our database for station/object OE6JVE-13. If no packets are shown the sender has not sent any weather packets the latest 10 day(s).
| Time | Temp. | Humidity | Pressure | Rain* | Wind** | Luminosity | Snow |
|---|---|---|---|---|---|---|---|
| 1788376230 | 17.78° C | 87% | 1011.9 hPa | 0 mm | - | - | - |
| 1788375638 | 17.78° C | 86% | 1011.8 hPa | 0 mm | - | - | - |
| 1788375046 | 18.33° C | 86% | 1011.9 hPa | 0 mm | - | - | - |
| 1788374459 | 18.33° C | 85% | 1011.6 hPa | 0 mm | - | - | - |
| 1788373862 | 18.33° C | 84% | 1011.5 hPa | 0 mm | - | - | - |
| 1788373270 | 18.89° C | 83% | 1011.2 hPa | 0 mm | - | - | - |
| 1788372682 | 18.89° C | 82% | 1010.9 hPa | 0 mm | - | - | - |
| 1788372021 | 19.44° C | 82% | 1010.7 hPa | 0 mm | - | - | - |
| 1788370850 | 20° C | 80% | 1010.6 hPa | 0 mm | - | - | - |
| 1788370244 | 20.56° C | 80% | 1010.6 hPa | 0 mm | - | - | - |
| 1788369707 | 21.11° C | 78% | 1010.5 hPa | 0 mm | - | - | - |
| 1788369102 | 21.67° C | 76% | 1010.3 hPa | 0 mm | - | - | - |
| 1788367237 | 22.22° C | 70% | 1010.3 hPa | 0 mm | - | - | - |
| 1788366625 | 22.22° C | 70% | 1010.3 hPa | 0 mm | - | - | - |
| 1788366033 | 22.78° C | 69% | 1010.2 hPa | 0 mm | - | - | - |
| 1788365441 | 23.33° C | 68% | 1010.3 hPa | 0 mm | - | - | - |
| 1788364849 | 23.33° C | 65% | 1010.2 hPa | 0 mm | - | - | - |
| 1788364257 | 23.89° C | 64% | 1010.2 hPa | 0 mm | - | - | - |
| 1788363665 | 23.89° C | 63% | 1010 hPa | 0 mm | - | - | - |
| 1788363073 | 24.44° C | 61% | 1010 hPa | 0 mm | - | - | - |
| 1788362481 | 25° C | 57% | 1010.1 hPa | 0 mm | - | - | - |
| 1788361823 | 26.67° C | 53% | 1010 hPa | 0 mm | - | - | - |
| 1788361230 | 26.67° C | 51% | 1009.9 hPa | 0 mm | - | - | - |
| 1788360638 | 27.78° C | 44% | 1009.9 hPa | 0 mm | - | - | - |
| 1788360046 | 28.89° C | 41% | 1009.9 hPa | 0 mm | - | - | - |
* Rain latest hour (hover to see other rain measurements)
** Current wind speed in m/s (hover to see current wind gust speed)